Regional Weather Roundup
Issued by NWS

Home | Current Version | Previous Version | Text Only | Print | Product List | Glossary Off
Versions: 1 2 3 4 5 6 7 8 9 10 11 12 13 14 15 16 17 18 19 20 21 22 23 24 25 26 27 28 29 30 31 32 33 34 35 36 37 38 39 40 41 42 43 44 45 46 47 48 49 50

000
ASUS44 KMEG 271910
RWRTN
TENNESSEE HOURLY STATE WEATHER ROUNDUP
NATIONAL WEATHER SERVICE MEMPHIS TN
200 PM CDT THU JUL 27 2017

TNZ002-004-019-021-049-052-054-088>092-272000-
WEST TENNESSEE

CITY           SKY/WX    TMP DP  RH WIND       PRES   REMARKS
MEMPHIS INTL   CLOUDY    92  76  59 SW9G18    29.98F HX 104
NWS MEMPHIS      N/A     92 N/A N/A MISG        N/A
JACKSON        PTSUNNY   93  76  57 W12       29.97F HX 105
SOMERVILLE       N/A     93  75  55 SW10      29.97F HX 104
COVINGTON      MOSUNNY   91  77  62 W12       29.96F HX 105
UNION CITY     SUNNY     88  77  70 W9        29.94F HX 100
BOLIVAR        MOSUNNY   90  75  62 VRB7      29.98F HX 100
PARIS          SUNNY     90  77  66 SW7G14    29.95F HX 102
HUNTINGDON     MOSUNNY   91  77  62 SW8       29.95F HX 105
LEXINGTON      MOSUNNY   91  73  55 SW9       29.97F HX 100
SAVANNAH       SUNNY     93  72  49 W7G15     29.97F HX 100
$$

TNZ008-025-027-028-033-062-065-066-272000-
NORTH MIDDLE TENNESSEE

CITY           SKY/WX    TMP DP  RH WIND       PRES   REMARKS
NASHVILLE      CLOUDY    92  73  53 VRB7      29.97F HX 100
PORTLAND       MOSUNNY   90  73  58 SW8G16    29.95F HX  98
CLARKSVILLE    PTSUNNY   89  72  56 W9        29.95F HX  96
SMYRNA         CLOUDY    90  72  55 SW10      29.98F HX  97
COOKEVILLE     SUNNY     90  73  58 VRB7G18   29.99F HX  98
GALLATIN       SUNNY     93  72  49 VRB6G16   29.98F HX 100
CROSSVILLE     PTSUNNY   85  72  65 W13       30.05F HX  91
$$

TNZ061-075-076-078-094-096-097-272000-
SOUTH MIDDLE TENNESSEE

CITY           SKY/WX    TMP DP  RH WIND       PRES   REMARKS
FAYETTEVILLE   MOSUNNY   90  70  51 W10       30.01F HX  95
TULLAHOMA      SUNNY     90  68  48 W8        30.03S HX  93
WINCHESTER     MOSUNNY   90  73  58 NW6       30.02S HX  98
MCMINNVILLE    MOSUNNY   90  75  62 W12       30.01F HX 100
COLUMBIA       SUNNY     90  72  55 VRB5G14   29.97F HX  96
SHELBYVILLE    MOSUNNY   91  72  52 W12       30.00F HX  98
$$

TNZ017-018-042-046-047-272000-
NORTHEAST TENNESSEE

CITY           SKY/WX    TMP DP  RH WIND       PRES   REMARKS
TRI CITIES     CLOUDY    81  70  69 W6        30.05R
ELIZABETHTON   CLOUDY    81  70  69 W5        30.05S
$$

TNZ012-013-036-069-073-074-272000-
CENTRAL EAST TENNESSEE

CITY           SKY/WX    TMP DP  RH WIND       PRES   REMARKS
KNOXVILLE      NOT AVBL
OAK RIDGE      CLOUDY    87  72  60 VRB5      30.01F HX  93
DOWNTOWN KNOXV SUNNY     84  75  74 CALM      29.98F HX  92
GATLINBURG     SUNNY     88  70  55 W7        29.99F HX  92
MORRISTOWN     SUNNY     84  73  70 W9        30.01F HX  91
JACKSBORO      SUNNY     79  73  83 CALM      30.05S
$$

TNZ083-085-099-272000-
SOUTHEAST TENNESSEE

CITY           SKY/WX    TMP DP  RH WIND       PRES   REMARKS
CHATTANOOGA    CLOUDY    77  72  84 CALM      30.02F
DAYTON         PTCLDY    82  75  78 SW10G17   29.98F
$$

SKY/WX REPORTED AS FAIR MEANS FEW OR NO CLOUDS BELOW
12 THOUSAND FEET.





USA.gov is the U.S. government's official web portal to all federal, state and local government web resources and services.